www.pogodaiklimat.ru

Погода и климат >> Архив погоды >> Норвегия >> Oslo


АРХИВ ПОГОДЫ в Oslo

Время (UTC), дата Ветер
(напр.,м/с)
 
Видим.   Явления Облачность Т
(С)
Тd
(С)
f
(%)
Тe
(С)
Тes
(С)
Комфортность P
(гПа)
Po
(гПа)
Тmin
(С)
Tmax
(С)
R
(мм)
R24
(мм)
S
(см)
04 8.08 СВ 4 50 км н/о +16.8 +13.3 80 +16 +16 тепло 1008.6 997.2
05 8.08 СВ 3
{6}
45 км н/о +17.7 +13.8 78 +18 +18 тепло 1008.0 996.7
06 8.08 СВ 3
{6}
40 км 8/4 1000 м
[Cu Sc Ac As Cc]
+18.9 +14.2 74 +20 +21 тепло 1007.7 996.4 +15.6 +20.2
08 8.08 СВ 2
{4}
45 км слаб. ливневой дождь н/о +18.4 +14.5 78 +19 +19 по сезону 1008.1 996.8 0.2
07 8.08 СВ 3
{4}
45 км слаб. ливневой дождь н/о +19.2 +14.5 74 +21 +21 комфорт 1007.5 996.2
09 8.08 В 2
{4}
30 км слабый ливневой дождь 10/4 1000 м
[Cu Sc Ac As]
+17.8 +15.4 86 +18 +20 по сезону 1008.5 997.2 0.8
10 8.08 С 3
{6}
6000 м дождь н/о +17.2 +16.1 93 +17 +17 холодно 1008.8 997.5 2
11 8.08 В 2
{3}
13 км сильн. ливневой дождь н/о +17.3 +16.5 95 +18 +18 прохладно 1008.1 996.8 3
12 8.08 СВ 3
{6}
28 км слабый дождь {ливн. осадки} 10/5 300 м
[Frnb Ac As]
+17.8 +16.7 93 +18 +19 прохладно 1007.0 995.7 0.4
14 8.08 СВ 3
{4}
30 км слаб. ливневой дождь н/о +18.9 +16.3 85 +20 +20 по сезону 1006.3 995.0
13 8.08 СВ 2
{5}
25 км слаб. ливневой дождь н/о +18.2 +16.2 88 +19 +19 по сезону 1007.1 995.8
15 8.08 В 1
{4}
60 км {дождь} 5/0
[Ac trans Ci sp]
+21.9 +16.4 71 +26 +31 душно 1006.1 995.0
16 8.08 ЮЗ 2
{3}
40 км н/о +22.6 +17.3 72 +27 +27 душно 1005.8 994.7
17 8.08 ЮЗ 4
{7}
35 км слаб. ливневой дождь н/о +20.8 +17.2 80 +25 +25 комфорт 1006.1 994.9
18 8.08 В 1
{7}
50 км слабый дождь 10/4 1000 м
[St Ac As]
+19.1 +17.9 93 +22 +22 комфорт 1006.3 995.1 +17.1 +23.3 1
20 8.08 Ю 2
{4}
6000 м слаб. ливневой дождь н/о +19.0 +18.4 96 +21 +21 комфорт 1006.4 995.1 0.1
19 8.08 Ю 2
{4}
12 км слаб. ливневой дождь н/о +19.2 +18.0 93 +22 +22 комфорт 1006.5 995.2 0.1
21 8.08 Ю 2
{4}
16 км н/о +19.0 +17.7 92 +21 +21 комфорт 1006.5 995.2
22 8.08 Ю 4
{8}
14 км н/о +19.0 +17.7 92 +21 +21 комфорт 1006.9 995.6
23 8.08 Ю 3
{7}
13 км н/о +18.9 +17.7 93 +21 +21 комфорт 1007.4 996.1
00 9.08 Ю 3
{8}
13 км н/о +18.8 +17.5 92 +20 +20 тепло 1007.6 996.3
02 9.08 ЮЗ 2
{6}
11 км н/о +18.5 +17.2 92 +20 +20 тепло 1007.9 996.6
01 9.08 ЮЗ 2
{6}
13 км н/о +18.6 +17.1 91 +20 +20 тепло 1008.0 996.7
03 9.08 Ю 1
{5}
11 км н/о +18.2 +17.1 93 +20 +20 тепло 1008.3 997.0
04 9.08 Ю 3
{5}
14 км н/о +18.6 +16.8 89 +20 +20 тепло 1008.7 997.4
05 9.08 Ю 3
{6}
16 км н/о +18.4 +16.4 88 +19 +19 тепло 1009.4 998.1
06 9.08 Ю 3
{6}
25 км 9/9 200 м
[St]
+18.5 +16.7 89 +19 +20 тепло 1009.7 998.4 +18.0 +19.2
08 9.08 ЮЗ 2
{6}
40 км н/о +21.8 +14.0 61 +25 +25 комфорт 1011.0 999.8
07 9.08 Ю 2
{6}
22 км н/о +19.5 +16.5 83 +22 +22 комфорт 1010.4 999.1
09 9.08 З 3
{6}
>70 км 4/1 600 м
[Cu med, cong Ac trans Ci sp]
+22.4 +12.9 55 +25 +31 комфорт 1011.7 1000.5
10 9.08 Ю 3 40 км н/о +23.0 +12.3 51 +26 +26 жарко 1011.8 1000.6
11 9.08 Ю 4
{7}
30 км н/о +24.2 +9.4 39 +25 +25 комфорт 1012.0 1000.9
12 9.08 Ю 4
{8}
>70 км 6/1 1000 м
[Sc diur, vesp Ci sp]
+24.3 +7.5 34 +25 +30 комфорт 1012.1 1001.0
14 9.08 Ю 5
{8}
40 км н/о +23.9 +7.5 35 +24 +24 комфорт 1012.1 1001.0
13 9.08 Ю 4
{8}
40 км н/о +24.9 +7.5 33 +25 +25 комфорт 1012.2 1001.1
15 9.08 Ю 3
{7}
>70 км 8/3 1000 м
[Cu hum Ci sp]
+24.8 +7.5 33 +25 +28 комфорт 1012.3 1001.2
16 9.08 Ю 5
{8}
45 км н/о +23.0 +11.4 48 +25 +25 комфорт 1012.4 1001.2
17 9.08 Ю 4
{9}
40 км н/о +22.4 +12.1 52 +25 +25 комфорт 1012.1 1000.9
18 9.08 Ю 3
{9}
>70 км 8/1 1000 м
[Cu hum Ac trans Cs]
+21.5 +11.8 54 +24 +24 комфорт 1012.3 1001.1 +18.3 +25.7
20 9.08 Ю 3
{6}
50 км н/о +19.1 +12.4 65 +20 +20 тепло 1012.2 1000.9
19 9.08 Ю 3
{6}
50 км н/о +20.0 +12.5 62 +22 +22 комфорт 1012.0 1000.7
21 9.08 ЮВ 1
{5}
>70 км 9/0
[Ac As]
+17.8 +12.9 73 +19 +19 тепло 1011.8 1000.4
22 9.08 ЮВ 1
{3}
45 км н/о +17.2 +12.7 75 +18 +18 тепло 1011.4 1000.0
23 9.08 СВ 2
{3}
50 км н/о +16.4 +12.8 79 +17 +17 тепло 1010.7 999.3
00 10.08 СВ 3
{6}
45 км н/о +16.5 +12.7 78 +16 +16 по сезону 1009.9 998.5
02 10.08 СВ 2
{4}
3900 м дождь н/о +15.1 +13.8 92 +15 +15 по сезону 1008.4 997.0 2
01 10.08 СВ 2
{3}
12 км слаб. дождь н/о +16.0 +13.5 85 +16 +16 по сезону 1009.2 997.8 0.3
03 10.08 СВ 3
{7}
5000 м дождь н/о +14.4 +13.3 93 +13 +13 по сезону 1006.4 995.0 3
04 10.08 СВ 5 50 км ливневой дождь н/о +14.5 +12.9 90 +13 +13 по сезону 1003.8 992.4 1
05 10.08 СВ 4
{11}
11 км ливневой дождь н/о +14.3 +13.0 92 +13 +13 по сезону 1002.8 991.4 1
06 10.08 СВ 4
{11}
15 км слабый дождь 10/8 200 м
[Frnb Ac As]
+14.6 +13.3 92 +13 +13 по сезону 1001.8 990.4 +14.2 +21.5 6
08 10.08 СВ 3
{6}
28 км в посл. час морось н/о +16.5 +15.0 91 +16 +16 прохладно 999.7 988.4
07 10.08 СВ 4
{8}
28 км слаб. ливневой дождь н/о +15.8 +14.2 90 +15 +15 прохладно 1000.8 989.5 0.1
09 10.08 В 4
{6}
20 км в посл. час дождь 10/8 200 м
[Frnb Ac As]
+17.5 +16.4 93 +17 +17 по сезону 998.7 987.5 2
10 10.08 ЮВ 3
{9}
35 км н/о +20.6 +17.0 80 +24 +24 комфорт 997.3 986.2
11 10.08 В 4
{10}
30 км н/о +20.9 +16.1 74 +24 +24 комфорт 995.8 984.7
12 10.08 ЮВ 7
{13}
15 км слабый дождь {ливн. осадки} 10/9 300 м
[Frnb]
+17.9 +15.5 86 +17 +17 прохладно 996.1 984.9 0.3
14 10.08 Ю 10
{19}
35 км в посл. час морось н/о +17.3 +12.8 75 +16 +16 холодно 996.8 985.6
13 10.08 Ю 7
{18}
16 км в посл. час дождь н/о +15.9 +12.7 81 +14 +14 очень
холодно
997.0 985.7 0.1
15 10.08 Ю 12
{21}
60 км в посл. час ливневой дождь 9/5 600 м
[Sc Ac As]
+17.1 +9.8 62 +15 +15 холодно 999.0 987.8
16 10.08 ЮЗ 10
{21}
45 км н/о +16.0 +6.7 54 +14 +14 очень
холодно
1002.3 991.0
17 10.08 ЮЗ 9
{18}
50 км н/о +16.6 +7.5 55 +15 +15 холодно 1003.5 992.2
18 10.08 ЮЗ 8
{21}
>70 км {ливн. осадки} 5/3 1000 м
[Sc Ac As]
+16.6 +6.7 52 +15 +15 холодно 1004.8 993.5 +14.6 +21.5
20 10.08 ЮЗ 6
{15}
50 км н/о +15.0 +5.3 52 +13 +13 холодно 1006.9 995.5
19 10.08 ЮЗ 8
{18}
50 км н/о +15.5 +6.5 55 +14 +14 прохладно 1005.8 994.4
21 10.08 ЮЗ 6
{13}
>70 км 4/3 600 м
[Sc Ac As]
+14.3 +4.6 52 +13 +13 прохладно 1007.7 996.2
22 10.08 ЮЗ 5
{11}
50 км н/о +14.4 +5.2 54 +13 +13 по сезону 1008.7 997.2
23 10.08 ЮЗ 4
{10}
50 км н/о +13.9 +6.0 59 +13 +13 по сезону 1009.7 998.2
00 11.08 ЮЗ 4
{18}
50 км н/о +13.2 +5.9 61 +12 +12 прохладно 1010.1 998.6
02 11.08 ЮЗ 2
{7}
50 км н/о +11.5 +5.8 68 +11 +11 прохладно 1011.8 1000.2
01 11.08 ЮЗ 3
{7}
50 км н/о +12.9 +5.8 62 +12 +12 по сезону 1011.1 999.6
03 11.08 СЗ 1
{4}
50 км н/о +10.4 +5.8 73 +10 +10 прохладно 1011.9 1000.2
04 11.08 СЗ 1
{3}
50 км н/о +9.6 +6.0 78 +9 +9 холодно 1012.2 1000.5
05 11.08 З 1
{3}
50 км н/о +10.1 +6.6 79 +10 +10 прохладно 1012.8 1001.1
06 11.08 ЮЗ 1
{7}
>70 км 3/0
[]
+13.9 +6.0 59 +14 +16 по сезону 1012.6 1001.1 +8.9 +16.6
08 11.08 Ю 2
{3}
35 км н/о +16.7 +7.4 54 +17 +17 по сезону 1012.6 1001.2
07 11.08 ЮЗ 1
{3}
40 км н/о +16.0 +7.8 58 +17 +17 по сезону 1012.5 1001.1
09 11.08 ЮВ 2
{4}
>70 км 4/1 1000 м
[Cu hum Ac As Ci fib]
+17.9 +7.6 51 +18 +25 по сезону 1012.8 1001.4
10 11.08 ЮЗ 2
{5}
45 км н/о +19.1 +6.6 44 +20 +20 прохладно 1012.4 1001.1
11 11.08 ЮЗ 2
{5}
45 км н/о +20.0 +7.1 43 +21 +21 комфорт 1012.0 1000.7
12 11.08 ЮЗ 2
{5}
>70 км 9/3 1000 м
[Cu hum Ac As Cs]
+18.4 +6.9 47 +19 +23 по сезону 1011.9 1000.6
14 11.08 Ю 3
{6}
50 км н/о +17.6 +7.4 51 +18 +18 прохладно 1011.4 1000.0
13 11.08 Ю 4
{7}
50 км н/о +17.5 +6.4 48 +17 +17 прохладно 1011.8 1000.4
15 11.08 ЮЗ 3
{6}
>70 км 9/3 1000 м
[Cu hum Ac As Cs]
+17.9 +7.4 50 +18 +20 по сезону 1010.9 999.5
16 11.08 ЮЗ 2
{4}
50 км н/о +18.6 +8.0 50 +20 +20 по сезону 1010.3 999.0
17 11.08 ЮЗ 3
{5}
50 км н/о +17.7 +8.6 55 +18 +18 по сезону 1010.0 998.7
18 11.08 Ю 2
{7}
>70 км 9/1 1000 м
[Cu hum Ac As Cs]
+16.7 +7.4 54 +17 +17 прохладно 1009.9 998.5 +13.9 +20.2
20 11.08 ЮВ 2
{3}
35 км н/о +15.1 +7.2 59 +15 +15 прохладно 1009.8 998.4
19 11.08 ЮВ 2
{5}
50 км н/о +15.9 +7.2 56 +16 +16 по сезону 1010.0 998.6
21 11.08 ЮЗ 1
{3}
>70 км 9/1 1000 м
[Cu hum Ac As Cs]
+14.2 +8.2 67 +15 +15 по сезону 1009.6 998.1
22 11.08 Ю 1
{2}
50 км н/о +14.1 +9.5 74 +14 +14 по сезону 1009.2 997.7
23 11.08 С 4
{6}
50 км н/о +13.7 +8.8 72 +12 +12 по сезону 1009.2 997.7
00 12.08 В 1
{8}
50 км дождь н/о +11.7 +10.0 89 +11 +11 прохладно 1009.2 997.6 0.8
02 12.08 штиль 0
{4}
50 км слаб. ливневой дождь н/о +11.5 +10.6 94 +11 +11 прохладно 1008.9 997.3
01 12.08 С 2
{4}
н/о н/о +11.9 +10.5 91 +11 +11 прохладно 1008.9 997.3 0.1
03 12.08 СВ 2
{3}
50 км н/о +11.8 +9.9 88 +11 +11 прохладно 1008.6 997.0
04 12.08 СВ 2 50 км н/о +11.3 +9.2 87 +10 +10 очень
холодно
1008.6 997.0
05 12.08 С 2
{4}
н/о н/о +11.8 +9.4 85 +11 +11 очень
холодно
1008.6 997.0
06 12.08
{5}
н/о н/о +11.7 +9.4 86 1009.1 997.5 +11.3 +16.8 0.3
08 12.08 С 4
{6}
21 км слаб. дождь н/о +11.3 +9.2 87 +9 +9 очень
холодно
1010.0 998.4 1
07 12.08 С 3
{5}
17 км слаб. дождь н/о +11.4 +9.5 88 +10 +10 очень
холодно
1009.6 998.0 1
09 12.08 С 3
{6}
55 км слабый дождь 9/6 600 м
[Frnb As op]
+11.4 +9.2 86 +10 +11 очень
холодно
1010.5 998.9 0.4
10 12.08 С 3
{7}
45 км слаб. дождь н/о +11.6 +8.6 82 +10 +10 очень
холодно
1010.6 999.0 0.3
11 12.08 СЗ 1
{5}
45 км в посл. час морось н/о +13.6 +9.5 76 +14 +14 холодно 1010.9 999.4
12 12.08 С 3
{7}
>70 км {дождь} 9/6 600 м
[Cu Sc Ac As]
+14.2 +7.3 63 +13 +15 очень
холодно
1011.1 999.6
14 12.08 СВ 2
{6}
45 км н/о +16.0 +7.0 55 +16 +16 холодно 1010.6 999.2
13 12.08 С 3
{7}
35 км н/о +15.7 +7.7 59 +15 +15 холодно 1010.7 999.3
15 12.08
{5}
>70 км 8/5 600 м
[Cu Sc Ac As Cs]
+16.1 +6.8 54 1010.4 999.0
16 12.08 СВ 2
{4}
50 км н/о +15.4 +6.4 55 +15 +15 холодно 1010.1 998.7
17 12.08 ЮЗ 1
{2}
40 км н/о +16.5 +7.2 54 +17 +17 прохладно 1009.9 998.5
18 12.08 ЮЗ 2
{7}
>70 км 8/3 1000 м
[Cu Sc Ac As Cs]
+15.2 +7.3 59 +15 +15 прохладно 1010.3 998.9 +11.2 +16.6
20 12.08 С 1
{2}
50 км н/о +12.6 +8.1 74 +13 +13 прохладно 1010.6 999.0
19 12.08 В 1
{3}
50 км н/о +14.9 +6.7 58 +16 +16 по сезону 1010.5 999.0
21 12.08 СВ 2
{3}
>70 км 1/1 1000 м
[Sc diur, vesp]
+10.9 +8.1 83 +10 +10 холодно 1010.7 999.1
22 12.08 СВ 3
{4}
50 км н/о +10.3 +7.9 85 +8 +8 холодно 1010.9 999.2
23 12.08 СВ 2
{4}
50 км н/о +9.5 +7.6 88 +8 +8 холодно 1011.0 999.3
00 13.08 С 2
{4}
50 км н/о +8.8 +7.4 91 +7 +7 холодно 1011.0 999.3
02 13.08 СВ 2
{4}
н/о н/о +8.3 +7.1 92 +6 +6 очень
холодно
1011.0 999.3
01 13.08 СВ 3
{4}
50 км н/о +8.8 +7.4 91 +6 +6 очень
холодно
1010.9 999.2
03 13.08 СВ 3
{4}
50 км н/о +8.0 +6.8 92 +5 +5 очень
холодно
1011.1 999.4
04 13.08 СВ 3
{5}
50 км н/о +8.7 +7.0 89 +6 +6 очень
холодно
1011.1 999.4
05 13.08 СВ 2
{6}
50 км н/о +10.2 +7.6 84 +9 +9 холодно 1011.2 999.5
06 13.08 З 1
{6}
>70 км 1/1 100 м
[St Ci fib]
+12.4 +8.5 77 +12 +15 по сезону 1011.2 999.6 +7.9 +15.3
08 13.08 ЮЗ 1
{3}
40 км н/о +16.5 +8.2 58 +17 +17 по сезону 1011.0 999.6
07 13.08 ЮЗ 1
{2}
45 км н/о +14.6 +8.6 67 +15 +15 прохладно 1011.1 999.6
09 13.08 ЮЗ 2
{4}
>70 км 3/1 1000 м
[Cu hum Ci fib]
+17.7 +8.8 56 +18 +25 по сезону 1010.9 999.5
10 13.08 ЮЗ 2
{4}
40 км н/о +18.8 +8.5 51 +20 +20 по сезону 1010.6 999.3
11 13.08 Ю 3
{6}
35 км н/о +19.7 +6.5 42 +21 +21 комфорт 1010.2 998.9
12 13.08 ЮЗ 3
{6}
>70 км 3/3 1000 м
[Cu hum Cs]
+21.1 +6.3 38 +22 +28 комфорт 1009.9 998.7
14 13.08 ЮЗ 2
{5}
45 км н/о +21.9 +2.1 27 +22 +22 комфорт 1009.2 998.0
13 13.08 ЮЗ 2
{5}
50 км н/о +21.5 +4.6 33 +22 +22 комфорт 1009.5 998.3
15 13.08 Ю 2
{5}
>70 км 3/1 1000 м
[Sc diur, vesp Cs]
+21.3 +3.1 30 +21 +26 комфорт 1009.0 997.8
16 13.08 ЮЗ 2
{5}
45 км н/о +21.6 +3.8 31 +22 +22 комфорт 1008.6 997.4
17 13.08 Ю 2
{4}
50 км н/о +20.3 +3.5 33 +21 +21 комфорт 1008.2 997.0
18 13.08 ЮЗ 1
{5}
>70 км 3/1 1000 м
[Sc diur, vesp Cs]
+19.5 +3.3 34 +21 +21 комфорт 1008.2 996.9 +12.4 +22.4
20 13.08 СВ 2
{3}
50 км н/о +14.1 +6.0 58 +14 +14 прохладно 1008.8 997.3
19 13.08 СЗ 1
{3}
50 км н/о +16.9 +6.1 49 +18 +18 тепло 1008.5 997.1
21 13.08 СВ 2
{4}
>70 км 3/1 1500 м
[Sc diur, vesp Cs]
+13.4 +5.8 60 +13 +13 прохладно 1008.7 997.2
22 13.08 В 3
{4}
50 км н/о +12.4 +6.2 66 +11 +11 прохладно 1009.1 997.6
23 13.08 СВ 3
{4}
50 км н/о +11.7 +6.2 69 +10 +10 прохладно 1009.3 997.7
00 14.08 СВ 3
{4}
50 км н/о +11.5 +6.0 69 +10 +10 прохладно 1009.3 997.7
02 14.08 СВ 3
{5}
50 км н/о +10.9 +5.9 71 +9 +9 прохладно 1009.2 997.6
01 14.08 СВ 4
{5}
50 км н/о +11.5 +5.6 67 +9 +9 холодно 1009.3 997.7
03 14.08 СВ 3
{5}
50 км н/о +11.5 +5.8 68 +10 +10 прохладно 1008.9 997.3
04 14.08 В 2
{5}
50 км н/о +11.6 +6.3 70 +11 +11 прохладно 1009.0 997.4
05 14.08 СВ 3
{5}
50 км н/о +13.0 +5.9 62 +12 +12 по сезону 1008.9 997.4
06 14.08 С 3
{5}
>70 км 9/1 1000 м
[Cu hum Ac As Ci fib]
+14.7 +6.8 59 +14 +15 по сезону 1008.9 997.5 +10.8 +19.5
08 14.08 СВ 2
{4}
45 км н/о +18.2 +6.7 47 +19 +19 тепло 1008.6 997.3
07 14.08 СВ 3
{5}
45 км н/о +16.8 +6.6 51 +17 +17 по сезону 1008.7 997.3
09 14.08 В 2
{5}
>70 км 9/3 1000 м
[Sc diur, vesp Ac As Ci fib]
+19.3 +6.4 43 +20 +24 тепло 1008.8 997.5
10 14.08 СВ 3
{5}
45 км н/о +19.8 +7.9 46 +21 +21 комфорт 1008.6 997.3
11 14.08 Ю 3
{7}
50 км н/о +19.0 +10.0 56 +20 +20 по сезону 1008.5 997.2
12 14.08 Ю 4
{8}
>70 км 8/3 1000 м
[Cu med, cong Ac As Cc]
+20.0 +10.4 54 +21 +25 комфорт 1008.8 997.6
14 14.08 Ю 2
{6}
30 км н/о +19.9 +7.6 45 +21 +21 комфорт 1008.8 997.6
13 14.08 ЮВ 3
{8}
45 км н/о +18.3 +9.9 58 +19 +19 по сезону 1009.3 998.0
15 14.08 В 3
{5}
>70 км 6/3 1000 м
[Cu Sc Ac trans Cs]
+19.5 +7.6 46 +21 +23 комфорт 1008.6 997.3
16 14.08 В 1
{4}
50 км н/о +19.0 +7.8 48 +21 +21 комфорт 1008.4 997.1
17 14.08 В 2
{4}
45 км н/о +19.1 +8.2 49 +20 +20 по сезону 1008.2 996.9
18 14.08 В 2
{8}
>70 км 5/1 1000 м
[Sc Ac As Ci sp]
+17.8 +7.8 52 +18 +19 по сезону 1008.3 997.0 +14.7 +20.5
20 14.08 ЮВ 2
{4}
50 км н/о +14.9 +9.1 68 +15 +15 по сезону 1009.3 997.9
19 14.08 ЮВ 3
{4}
50 км н/о +16.5 +7.7 56 +16 +16 по сезону 1008.9 997.5
21 14.08 Ю 1
{3}
50 км н/о +13.2 +9.1 76 +13 +13 прохладно 1009.4 997.9
22 14.08 С 1
{2}
50 км н/о +11.5 +8.9 84 +11 +11 прохладно 1009.7 998.1
23 14.08 СЗ 1
{1}
50 км н/о +11.4 +9.5 88 +11 +11 прохладно 1010.2 998.6
00 15.08 СВ 2
{4}
50 км н/о +11.2 +9.5 89 +10 +10 прохладно 1009.9 998.3
02 15.08 СВ 2
{4}
50 км н/о +10.4 +9.3 93 +9 +9 прохладно 1009.9 998.3
01 15.08 СВ 1
{3}
50 км н/о +10.6 +9.2 91 +10 +10 прохладно 1010.0 998.4
03 15.08 СВ 1
{3}
50 км н/о +10.0 +9.1 94 +9 +9 холодно 1010.2 998.5
04 15.08 СВ 2 50 км н/о +11.1 +9.7 91 +10 +10 тепло 1010.1 998.5

 

Местоположение метеостанции Oslo (Норвегия): широта 59.94 долгота 10.72 высота над уровнем моря 94 м.

В архиве по умолчанию представлена погода в Oslo за последнюю неделю. Архивные данные за месяц целиком и за предыдущие месяцы, начиная с января 2011 года, Вы можете получить, выбрав интересующий диапазон дат из раскрывающегося списка и нажав кнопку "Ввод!".


*Определитесь, кто Вы:
робот инопланетянин человек

Внимание! Время в таблицах - всемирное. Для получения местного времени необходимо прибавить поправку, которая в Oslo равна 1 ч.

Смотрите также архив погоды в соседних городах и на ближайших метеорологических станциях:

Погода в Tryvasshogda (Норвегия) (5 км)
Погода в Bjornholt (Норвегия) (12 км)
Погода в Kjeller (Норвегия) (18 км)
Погода в Asker (Норвегия) (19 км)
Погода в Hakadal Jernbanestasjon (Норвегия) (21 км)
Погода в As (Норвегия) (31 км)
Погода в Oslo Lifthavn (Норвегия) (36 км)
Погода в Honefoss-Hoyby (Норвегия) (37 км)
Погода в Drammen Berskog (Норвегия) (40 км)
Погода в Konnerud (Норвегия) (41 км)

Пояснения к столбцам:

Ветер - указаны скорость ветра в м/с - средняя за 10 мин, порывы в срок и между сроками (в фигурных скобках) и направление, откуда дует ветер: С - северный, СВ - северо-восточный, В - восточный, ЮВ - юго-восточный, Ю - южный, ЮЗ - юго-западный, З - западный, СЗ - северо-западный.
Видимость - горизонтальная дальность видимости в метрах или километрах. При видимости от 1 до 10 км при отсутствии осадков обычно наблюдается дымка, при ухудшении видимости до 1 км и менее - туман. В сухую погоду видимость может ухудшаться дымом, пылью или мглою.
Явления - указаны атмосферные явления, наблюдавшиеся в срок или в последний час перед сроком; фигурными скобками обозначены явления, наблюдавшиеся между сроками (за 1-3 часа до срока); квадратными скобками обозначены град или гололедные отложения с указанием их диаметра в мм.
Облачность - указаны через наклонную черту общая и нижняя облачность в баллах и высота нижней границы облаков в метрах; квадратными скобками обозначены формы облаков: Ci - перистые, Cs - перисто-слоистые, Cc - перисто-кучевые, Ac - высококучевые, As - высокослоистые, Sc - слоисто-кучевые, Ns - слоисто-дождевые, Cu - кучевые, Cb - кучево-дождевые. Подробнее классификацию облаков см. в Атласе облаков (PDF).
T - Температура воздуха - температура, измеренная на высоте 2 м над землей.
Td - Температура точки росы - температура, при понижении до которой содержащийся в воздухе водяной пар достигнет насыщения.
f - Относительная влажность воздуха - влажноcть воздуха, измеренная на высоте 2 м над землей.
Te - Эффективная температура - температура, которую ощущает одетый по сезону человек в тени. Характеристика душности погоды. При расчете учитывается влияние влажности воздуха и скорости ветра на теплоощущения человека.
Tes - Эффективная температура на солнце - температура, которую ощущает человек, с поправкой на солнечный нагрев. Характеристика знойности погоды. Зависит от высоты солнца над горизонтом, облачности и скорости ветра. Ночью, в пасмурную погоду, а также при ветре 12 м/с и более поправка равна нулю.
P - Атмосферное давление - приведенное к уровню моря атмосферное давление.
Po - Атмосферное давление - измеренное на уровне метеостанции атмосферное давление.
Tmin - Минимальная температура - минимум температуры воздуха на высоте 2 м над землей.
Tmax - Максимальная температура - максимум температуры воздуха на высоте 2 м над землей.
R - Количество осадков - Количество выпавших осадков за период времени, мм. При наведении курсора мыши на число - период времени, за который выпало указанное количество осадков.
R24 - Количество осадков - Количество выпавших осадков за 24 часа, мм.
S - Снежный покров - Высота снежного покрова, см. При наведении курсора мыши на число - состояние снежного покрова и степень покрытия местности в баллах.